DL9BGG-13 Weather Reports


time (UTC)temp
F
wind
direction
speed
knots
gust
knots
rain 1hr
in
rain 24hr
in
rain mn
in
humidity
%
barometer
mb
20260831172724 62 202 7.8 0.0 0.02 0.18 0.00 89 1053.5
20260831172506 62 247 7.0 0.0 0.02 0.18 0.00 88 1053.4
20260831172339 62 247 7.0 0.0 0.02 0.18 0.00 88 1053.5
20260831172234 62 270 13.0 0.0 0.02 0.18 0.00 88 1053.5
20260831172121 62 292 6.1 0.0 0.02 0.18 0.00 88 1053.5
20260831172016 62 247 7.8 0.0 0.02 0.18 0.00 88 1053.4
20260831171911 62 337 7.8 0.0 0.02 0.18 0.00 88 1053.4
20260831171757 62 292 10.4 0.0 0.02 0.18 0.00 88 1053.4
20260831171651 62 270 4.3 0.0 0.02 0.18 0.00 88 1053.4
20260831171546 63 247 7.8 0.0 0.02 0.18 0.00 88 1053.3
20260831171433 63 292 7.8 0.0 0.02 0.18 0.00 89 1053.3
20260831171321 63 270 6.1 0.0 0.02 0.18 0.00 89 1053.3
20260831171214 63 337 6.1 0.0 0.02 0.18 0.00 89 1053.2
20260831171101 63 270 12.2 0.0 0.02 0.18 0.00 89 1053.3
20260831170940 63 270 13.0 0.0 0.02 0.18 0.00 89 1053.3
20260831170828 62 292 9.6 0.0 0.02 0.18 0.00 89 1053.2
20260831170705 62 292 5.2 0.0 0.02 0.18 0.00 90 1053.2
20260831170552 62 292 7.0 0.0 0.02 0.18 0.00 90 1053.2
20260831170423 62 270 8.7 0.0 0.02 0.18 0.00 90 1053.3
20260831170310 62 292 6.1 0.0 0.02 0.18 0.00 90 1053.3
20260831170205 62 247 6.1 0.0 0.02 0.18 0.00 90 1053.2
20260831170043 62 247 3.5 0.0 0.02 0.18 0.00 90 1053.4
20260831165923 62 315 9.6 0.0 0.02 0.18 0.00 90 1053.4
20260831165808 62 270 7.0 0.0 0.02 0.18 0.00 90 1053.3
20260831165639 62 247 12.2 0.0 0.02 0.18 0.00 89 1053.3
20260831165533 62 292 10.4 0.0 0.02 0.18 0.00 89 1053.4
20260831165428 62 270 4.3 0.0 0.02 0.18 0.00 89 1053.2
20260831165322 62 247 6.1 0.0 0.02 0.18 0.00 89 1053.4
20260831165155 62 270 4.3 0.0 0.04 0.18 0.00 89 1053.4
20260831165048 62 315 10.4 0.0 0.04 0.18 0.00 88 1053.4
20260831164935 62 247 9.6 0.0 0.04 0.18 0.00 88 1053.4
20260831164830 62 270 8.7 0.0 0.04 0.18 0.00 88 1053.3
20260831164710 62 270 5.2 0.0 0.08 0.18 0.00 88 1053.4
20260831164606 62 247 6.1 0.0 0.08 0.18 0.00 88 1053.3
20260831164459 62 225 5.2 0.0 0.08 0.18 0.00 87 1053.2
20260831164337 62 247 5.2 0.0 0.10 0.18 0.00 87 1053.3
20260831164218 62 270 7.0 0.0 0.08 0.16 0.00 86 1053.2
20260831164113 63 225 4.3 0.0 0.08 0.16 0.00 86 1053.2
20260831164007 63 292 7.0 0.0 0.08 0.16 0.00 86 1053.1
20260831163852 63 247 14.8 0.0 0.10 0.16 0.00 85 1053.1
20260831163746 63 292 5.2 0.0 0.10 0.16 0.00 84 1053.2
20260831163633 64 292 7.8 0.0 0.10 0.16 0.00 84 1053.0
20260831163528 64 292 10.4 0.0 0.10 0.16 0.00 84 1053.1
20260831163414 64 292 9.6 0.0 0.10 0.16 0.00 83 1053.1
20260831163255 64 292 5.2 0.0 0.10 0.16 0.00 83 1053.0
20260831163148 64 270 6.1 0.0 0.10 0.16 0.00 83 1053.1
20260831163035 64 270 9.6 0.0 0.10 0.16 0.00 83 1053.1
20260831162916 64 270 13.9 0.0 0.10 0.16 0.00 84 1053.0
20260831162801 64 270 7.0 0.0 0.10 0.16 0.00 84 1053.1
20260831162648 64 247 8.7 0.0 0.10 0.16 0.00 85 1053.1
20260831162541 64 292 4.3 0.0 0.10 0.16 0.00 85 1053.0
20260831162420 64 292 4.3 0.0 0.10 0.16 0.00 85 1053.0
20260831162258 64 270 5.2 0.0 0.10 0.16 0.00 85 1053.0
20260831162136 64 247 3.5 0.0 0.10 0.16 0.00 85 1053.0
20260831162030 64 292 7.0 0.0 0.10 0.16 0.00 85 1053.0
20260831161909 64 270 5.2 0.0 0.10 0.16 0.00 86 1053.0
20260831161803 64 247 4.3 0.0 0.10 0.16 0.00 86 1053.0
20260831161658 64 292 7.8 0.0 0.10 0.16 0.00 86 1053.0
20260831161552 63 270 9.6 0.0 0.10 0.16 0.00 86 1053.0
20260831161437 63 292 7.0 0.0 0.10 0.16 0.00 86 1053.0
20260831161326 63 270 12.2 0.0 0.10 0.16 0.00 86 1053.0
20260831161209 63 270 9.6 0.0 0.10 0.16 0.00 86 1053.0
20260831161059 63 270 13.0 0.0 0.10 0.16 0.00 86 1053.0
20260831160952 63 292 10.4 0.0 0.10 0.16 0.00 86 1052.9
20260831160838 63 247 9.6 0.0 0.10 0.16 0.00 87 1053.0
20260831160725 63 225 7.0 0.0 0.10 0.16 0.00 87 1053.0
20260831160620 63 247 3.5 0.0 0.10 0.16 0.00 87 1052.9
20260831160509 63 292 6.1 0.0 0.10 0.16 0.00 87 1052.9
20260831160402 63 315 8.7 0.0 0.10 0.16 0.00 87 1052.9
20260831160240 62 292 8.7 0.0 0.10 0.16 0.00 87 1052.9
20260831160128 62 270 7.8 0.0 0.10 0.16 0.00 87 1053.0
20260831160014 62 292 7.8 0.0 0.10 0.16 0.00 87 1052.9
20260831155853 62 247 5.2 0.0 0.10 0.16 0.00 87 1052.9
20260831155740 62 270 13.0 0.0 0.10 0.16 0.00 87 1052.8
20260831155626 62 315 2.6 0.0 0.10 0.16 0.00 86 1052.8
20260831155515 62 292 2.6 0.0 0.10 0.16 0.00 85 1052.9
20260831155408 62 292 7.8 0.0 0.10 0.16 0.00 85 1052.9
20260831155256 62 225 3.5 0.0 0.10 0.16 0.00 85 1052.9
20260831155142 62 247 4.3 0.0 0.08 0.14 0.00 84 1052.9
20260831155029 63 270 3.5 0.0 0.06 0.12 0.00 83 1052.9
20260831154915 63 270 4.3 0.0 0.06 0.12 0.00 82 1052.9
20260831154802 64 270 7.8 0.0 0.04 0.10 0.00 82 1052.9
20260831154641 64 270 7.8 0.0 0.04 0.10 0.00 82 1053.0
20260831154528 64 247 7.0 0.0 0.02 0.08 0.00 81 1052.9
20260831154424 64 247 2.6 0.0 0.02 0.08 0.00 81 1052.8
20260831154318 65 270 3.5 0.0 0.00 0.06 0.00 81 1052.7
20260831154213 64 225 0.0 0.0 0.00 0.06 0.00 81 1052.9
20260831154108 64 0 3.5 0.0 0.00 0.06 0.00 81 1052.7
20260831153938 64 247 4.3 0.0 0.00 0.06 0.00 81 1052.8
20260831153825 64 315 8.7 0.0 0.00 0.06 0.00 81 1052.6
20260831153720 64 292 5.2 0.0 0.00 0.06 0.00 81 1052.7
20260831153607 64 270 10.4 0.0 0.00 0.06 0.00 81 1052.7
20260831153446 64 247 12.2 0.0 0.00 0.06 0.00 81 1052.6
20260831153333 64 225 7.8 0.0 0.00 0.06 0.00 81 1052.5
20260831153212 64 270 5.2 0.0 0.00 0.06 0.00 81 1052.8
20260831153058 64 270 7.8 0.0 0.00 0.06 0.00 80 1052.6
20260831152945 64 292 0.0 0.0 0.00 0.06 0.00 80 1052.6
20260831152840 64 292 7.0 0.0 0.00 0.06 0.00 79 1052.7
20260831152735 64 135 0.0 0.0 0.00 0.06 0.00 79 1052.6
20260831152629 64 315 3.5 0.0 0.00 0.06 0.00 79 1052.5
20260831152522 64 292 2.6 0.0 0.00 0.06 0.00 79 1052.6
20260831152352 64 180 1.7 0.0 0.00 0.06 0.00 79 1052.6
20260831152239 64 247 7.8 0.0 0.00 0.06 0.00 78 1052.6
20260831152119 64 315 5.2 0.0 0.00 0.06 0.00 78 1052.4
20260831152004 64 270 3.5 0.0 0.00 0.06 0.00 78 1052.4
20260831151853 63 247 8.7 0.0 0.00 0.06 0.00 77 1052.6
20260831151738 63 270 5.2 0.0 0.00 0.06 0.00 76 1052.5
20260831151633 63 247 5.2 0.0 0.00 0.06 0.00 75 1052.5
20260831151512 64 225 7.8 0.0 0.00 0.06 0.00 74 1052.5
20260831151359 64 247 7.0 0.0 0.00 0.06 0.00 73 1052.5
20260831151245 64 247 7.0 0.0 0.00 0.06 0.00 73 1052.6
20260831151126 64 292 6.1 0.0 0.00 0.06 0.00 73 1052.7
20260831151022 65 225 7.8 0.0 0.00 0.06 0.00 73 1052.6
20260831150914 65 247 11.3 0.0 0.00 0.06 0.00 72 1052.6
20260831150800 65 247 13.0 0.0 0.00 0.06 0.00 72 1052.4
20260831150655 66 292 7.8 0.0 0.00 0.06 0.00 72 1052.5
20260831150541 66 270 5.2 0.0 0.00 0.06 0.00 71 1052.4
20260831150429 66 270 5.2 0.0 0.00 0.06 0.00 70 1052.5
20260831150315 67 247 9.6 0.0 0.00 0.06 0.00 68 1052.5
20260831150203 67 292 7.8 0.0 0.00 0.06 0.00 68 1052.5
20260831150057 67 247 7.0 0.0 0.00 0.06 0.00 69 1052.3
20260831145944 68 247 9.6 0.0 0.00 0.06 0.00 70 1052.3
20260831145834 68 270 5.2 0.0 0.00 0.06 0.00 70 1052.4
20260831145719 68 337 8.7 0.0 0.00 0.06 0.00 70 1052.3
20260831145613 68 292 5.2 0.0 0.00 0.06 0.00 70 1052.4
20260831145459 68 247 5.2 0.0 0.00 0.06 0.00 69 1052.3
20260831145339 68 270 5.2 0.0 0.00 0.06 0.00 69 1052.3
20260831145225 69 315 7.0 0.0 0.00 0.06 0.00 69 1052.3
20260831145106 69 337 8.7 0.0 0.00 0.06 0.00 69 1052.3
20260831144958 68 247 13.0 0.0 0.00 0.06 0.00 69 1052.4
20260831144839 68 270 7.8 0.0 0.00 0.06 0.00 69 1052.4
20260831144734 68 247 9.6 0.0 0.00 0.06 0.00 69 1052.3
20260831144620 68 270 3.5 0.0 0.00 0.06 0.00 69 1052.2
20260831144515 68 270 6.1 0.0 0.00 0.06 0.00 68 1052.2
20260831144353 68 315 2.6 0.0 0.00 0.06 0.00 68 1052.2
20260831144243 69 292 9.6 0.0 0.00 0.06 0.00 68 1052.2
20260831144136 69 270 11.3 0.0 0.00 0.06 0.00 68 1052.1
20260831144031 69 292 4.3 0.0 0.00 0.06 0.00 69 1052.3
20260831143918 69 270 5.2 0.0 0.00 0.06 0.00 69 1052.2
20260831143812 68 270 3.5 0.0 0.00 0.06 0.00 69 1052.2
20260831143651 68 337 3.5 0.0 0.00 0.06 0.00 69 1052.2
20260831143521 68 270 7.0 0.0 0.00 0.06 0.00 69 1052.1
20260831143408 68 270 11.3 0.0 0.00 0.06 0.00 70 1052.1
20260831143248 68 247 4.3 0.0 0.00 0.06 0.00 69 1052.1
20260831143136 69 270 5.2 0.0 0.00 0.06 0.00 69 1052.1
20260831143022 69 247 5.2 0.0 0.00 0.06 0.00 69 1052.0
20260831142917 69 247 4.3 0.0 0.00 0.06 0.00 68 1052.1
20260831142811 69 247 11.3 0.0 0.00 0.06 0.00 69 1052.1
20260831142700 69 270 11.3 0.0 0.00 0.06 0.00 69 1052.1
20260831142555 69 270 6.1 0.0 0.00 0.06 0.00 69 1052.0
20260831142448 69 270 4.3 0.0 0.00 0.06 0.00 70 1052.0
20260831142335 69 270 5.2 0.0 0.00 0.06 0.00 69 1052.1
20260831142230 69 225 5.2 0.0 0.00 0.06 0.00 69 1052.0
20260831142109 69 270 0.0 0.0 0.00 0.06 0.00 69 1052.0
20260831141955 69 292 5.2 0.0 0.00 0.06 0.00 68 1052.1
20260831141843 69 315 13.0 0.0 0.00 0.06 0.00 67 1052.1
20260831141737 69 270 8.7 0.0 0.00 0.06 0.00 67 1052.1
20260831141615 70 247 7.0 0.0 0.00 0.06 0.00 67 1052.1
20260831141455 70 270 9.6 0.0 0.00 0.06 0.00 68 1052.0
20260831141350 70 270 7.8 0.0 0.00 0.06 0.00 69 1052.1
20260831141245 70 202 3.5 0.0 0.00 0.06 0.00 69 1052.0
20260831141124 70 270 8.7 0.0 0.00 0.06 0.00 69 1052.1
20260831141010 70 202 6.1 0.0 0.00 0.06 0.00 69 1052.0
20260831140858 70 270 5.2 0.0 0.00 0.06 0.00 69 1052.1
20260831140745 70 225 5.2 0.0 0.00 0.06 0.00 68 1052.0
20260831140639 70 202 6.1 0.0 0.00 0.06 0.00 68 1052.0
20260831140526 70 247 6.1 0.0 0.00 0.06 0.00 68 1052.0
20260831140416 70 270 3.5 0.0 0.00 0.06 0.00 68 1052.0
20260831140308 70 225 6.1 0.0 0.00 0.06 0.00 67 1052.0
20260831140155 70 247 5.2 0.0 0.00 0.06 0.00 67 1052.0
20260831140050 70 247 5.2 0.0 0.00 0.06 0.00 67 1051.9
20260831135928 70 315 9.6 0.0 0.00 0.06 0.00 68 1051.9
20260831135815 70 315 0.0 0.0 0.00 0.06 0.00 68 1051.9
20260831135654 70 247 0.0 0.0 0.00 0.06 0.00 68 1051.9
20260831135534 70 270 3.5 0.0 0.00 0.06 0.00 67 1052.0
20260831135428 70 202 3.5 0.0 0.00 0.06 0.00 67 1051.9
20260831135314 70 270 7.0 0.0 0.00 0.06 0.00 68 1052.0
20260831135202 70 270 3.5 0.0 0.00 0.06 0.00 69 1052.1
20260831135049 69 225 2.6 0.0 0.00 0.06 0.00 68 1051.9
20260831134936 69 247 9.6 0.0 0.00 0.06 0.00 68 1052.0
20260831134822 69 180 5.2 0.0 0.00 0.06 0.00 68 1052.0
20260831134709 69 225 0.0 0.0 0.00 0.06 0.00 68 1051.9
20260831134557 69 225 1.7 0.0 0.00 0.06 0.00 68 1052.0
20260831134453 69 337 0.0 0.0 0.00 0.06 0.00 68 1051.9
20260831134338 69 202 6.1 0.0 0.00 0.06 0.00 68 1052.0
20260831134225 69 202 6.1 0.0 0.00 0.06 0.00 68 1052.1
20260831134121 69 225 6.1 0.0 0.00 0.06 0.00 67 1052.2
20260831134007 69 270 7.8 0.0 0.00 0.06 0.00 67 1052.1
20260831133846 69 270 10.4 0.0 0.00 0.06 0.00 67 1052.0
20260831133741 69 315 7.8 0.0 0.00 0.06 0.00 68 1052.1
20260831133636 69 247 5.2 0.0 0.00 0.06 0.00 68 1052.1
20260831133523 69 292 8.7 0.0 0.00 0.06 0.00 68 1052.0
20260831133416 69 270 8.7 0.0 0.00 0.06 0.00 68 1052.0
20260831133257 69 247 5.2 0.0 0.00 0.06 0.00 68 1052.1
20260831133151 69 270 5.2 0.0 0.00 0.06 0.00 68 1051.9
20260831133030 69 202 3.5 0.0 0.00 0.06 0.00 69 1051.9
20260831132925 69 202 5.2 0.0 0.00 0.06 0.00 69 1052.0
20260831132820 69 225 5.2 0.0 0.00 0.06 0.00 69 1051.9
20260831132716 69 225 5.2 0.0 0.00 0.06 0.00 69 1052.0
20260831132610 69 202 0.0 0.0 0.00 0.06 0.00 69 1051.9
20260831132505 68 270 7.8 0.0 0.00 0.06 0.00 69 1051.9
20260831132352 68 202 14.8 0.0 0.00 0.06 0.00 69 1051.9
20260831132240 68 270 6.1 0.0 0.00 0.06 0.00 69 1051.9
20260831132135 68 270 3.5 0.0 0.00 0.06 0.00 69 1051.9
20260831132029 68 270 6.1 0.0 0.00 0.06 0.00 69 1052.0
20260831131925 68 247 1.7 0.0 0.00 0.06 0.00 69 1051.9
20260831131819 68 270 5.2 0.0 0.00 0.06 0.00 69 1051.9
20260831131713 68 247 5.2 0.0 0.00 0.06 0.00 69 1051.9
20260831131600 68 270 2.6 0.0 0.00 0.06 0.00 69 1051.9
20260831131447 68 247 0.0 0.0 0.00 0.06 0.00 68 1051.9
20260831131326 68 270 0.0 0.0 0.00 0.06 0.00 68 1052.0
20260831131213 68 247 5.2 0.0 0.00 0.06 0.00 67 1051.9
20260831131059 68 270 4.3 0.0 0.00 0.06 0.00 66 1051.9
20260831130930 68 247 9.6 0.0 0.00 0.06 0.00 67 1051.9
20260831130817 68 270 3.5 0.0 0.00 0.06 0.00 67 1052.0
20260831130713 69 292 3.5 0.0 0.00 0.06 0.00 67 1051.9
20260831130607 69 270 7.8 0.0 0.00 0.06 0.00 69 1051.9
20260831130439 68 180 9.6 0.0 0.00 0.06 0.00 70 1051.9
20260831130334 68 225 3.5 0.0 0.00 0.06 0.00 71 1051.9
20260831130228 68 225 0.0 0.0 0.00 0.06 0.00 72 1051.9
20260831130059 68 225 7.0 0.0 0.00 0.06 0.00 73 1051.9
20260831125952 68 247 7.8 0.0 0.00 0.06 0.00 73 1051.9
20260831125839 68 270 5.2 0.0 0.00 0.06 0.00 73 1051.9
20260831125726 68 270 4.3 0.0 0.00 0.06 0.00 73 1051.9
20260831125613 68 270 4.3 0.0 0.00 0.06 0.00 74 1051.9
20260831125459 68 202 4.3 0.0 0.00 0.06 0.00 75 1051.9
20260831125332 68 247 3.5 0.0 0.00 0.06 0.00 75 1051.8
20260831125218 67 247 4.3 0.0 0.00 0.06 0.00 75 1051.8
20260831125113 67 247 0.9 0.0 0.00 0.06 0.00 75 1051.8
20260831125002 67 180 0.0 0.0 0.00 0.06 0.00 75 1051.8
20260831124855 67 247 7.0 0.0 0.00 0.06 0.00 75 1051.8
20260831124742 67 247 4.3 0.0 0.00 0.06 0.00 75 1051.8
20260831124637 67 225 0.9 0.0 0.00 0.06 0.00 77 1051.9
20260831124531 67 270 7.0 0.0 0.00 0.06 0.00 77 1051.8
20260831124410 67 247 0.0 0.0 0.00 0.06 0.00 78 1051.8
20260831124259 67 292 5.2 0.0 0.00 0.06 0.00 78 1051.8
20260831124150 66 270 3.5 0.0 0.00 0.06 0.00 77 1051.8
20260831124038 66 292 4.3 0.0 0.00 0.06 0.00 77 1051.8
20260831123908 66 202 9.6 0.0 0.00 0.06 0.00 77 1051.8
20260831123755 66 292 9.6 0.0 0.00 0.06 0.00 77 1051.8
20260831123641 66 202 4.3 0.0 0.00 0.06 0.00 77 1051.8
20260831123522 65 180 0.0 0.0 0.00 0.06 0.00 77 1051.8
20260831123417 65 202 5.2 0.0 0.00 0.06 0.00 77 1051.8
20260831123310 65 202 4.3 0.0 0.00 0.06 0.00 77 1051.8
20260831123149 65 247 7.8 0.0 0.00 0.06 0.00 77 1051.8
20260831123028 65 180 5.2 0.0 0.00 0.06 0.00 77 1051.8
20260831122915 65 202 6.1 0.0 0.00 0.06 0.00 77 1051.7
20260831122756 65 202 6.1 0.0 0.00 0.06 0.00 77 1051.8
20260831122642 65 202 12.2 0.0 0.00 0.06 0.00 77 1051.8
20260831122538 65 202 0.0 0.0 0.00 0.06 0.00 76 1051.8
20260831122431 64 225 4.3 0.0 0.00 0.06 0.00 76 1051.8
20260831122318 64 180 5.2 0.0 0.00 0.06 0.00 76 1051.8
20260831122156 64 225 6.1 0.0 0.00 0.06 0.00 78 1051.7
20260831122036 64 180 5.2 0.0 0.00 0.06 0.00 78 1051.7
20260831121924 64 202 7.8 0.0 0.00 0.06 0.00 78 1051.7
20260831121809 64 202 5.2 0.0 0.00 0.06 0.00 78 1051.7
20260831121656 64 202 7.8 0.0 0.00 0.06 0.00 78 1051.6
20260831121543 63 180 6.1 0.0 0.00 0.06 0.00 78 1051.6
20260831121438 63 157 7.0 0.0 0.00 0.06 0.00 79 1051.5
20260831121333 63 202 2.6 0.0 0.00 0.06 0.00 79 1051.6
20260831121220 63 202 3.5 0.0 0.00 0.06 0.00 79 1051.6
20260831121112 63 202 0.9 0.0 0.00 0.06 0.00 78 1051.6
20260831121001 63 247 3.5 0.0 0.00 0.06 0.00 78 1051.6
20260831120853 63 225 2.6 0.0 0.00 0.06 0.00 78 1051.6
20260831120739 63 180 7.0 0.0 0.00 0.06 0.00 78 1051.6
20260831120626 63 202 8.7 0.0 0.00 0.06 0.00 78 1051.7
20260831120520 63 180 7.8 0.0 0.00 0.06 0.00 78 1051.8
20260831120357 63 157 11.3 0.0 0.00 0.06 0.00 77 1051.8
20260831120235 63 225 7.8 0.0 0.00 0.06 0.00 76 1051.8
20260831120124 64 202 3.5 0.0 0.00 0.06 0.00 76 1051.8
20260831120017 64 202 0.0 0.0 0.00 0.06 0.00 75 1051.8
20260831115859 64 202 4.3 0.0 0.00 0.06 0.00 75 1051.8
20260831115752 65 225 5.2 0.0 0.00 0.06 0.00 74 1051.8
20260831115630 65 225 2.6 0.0 0.00 0.06 0.00 74 1051.8
20260831115509 66 292 9.6 0.0 0.00 0.06 0.00 76 1051.8
20260831115356 66 247 4.3 0.0 0.00 0.06 0.00 76 1051.8
20260831115242 66 202 4.3 0.0 0.00 0.06 0.00 76 1051.8
20260831115121 67 225 3.5 0.0 0.00 0.06 0.00 75 1051.7
20260831115011 67 225 7.8 0.0 0.00 0.06 0.00 75 1051.7
20260831114905 67 180 13.0 0.0 0.00 0.06 0.00 73 1051.7
20260831114757 67 202 14.8 0.0 0.00 0.06 0.00 72 1051.6
20260831114636 68 247 7.8 0.0 0.00 0.06 0.00 72 1051.5
20260831114523 68 247 9.6 0.0 0.00 0.06 0.00 72 1051.4
20260831114409 68 270 5.2 0.0 0.00 0.06 0.00 71 1051.4
20260831114248 68 202 4.3 0.0 0.00 0.06 0.00 71 1051.4
20260831114135 68 225 13.9 0.0 0.00 0.06 0.00 71 1051.4
20260831114014 68 202 7.0 0.0 0.00 0.06 0.00 71 1051.4
20260831113901 68 202 14.8 0.0 0.00 0.06 0.00 70 1051.4
20260831113750 68 202 5.2 0.0 0.00 0.06 0.00 70 1051.3
20260831113643 69 180 5.2 0.0 0.00 0.06 0.00 70 1051.4
20260831113529 69 180 3.5 0.0 0.00 0.06 0.00 70 1051.3
20260831113410 69 202 9.6 0.0 0.00 0.06 0.00 70 1051.3
20260831113255 69 247 3.5 0.0 0.00 0.06 0.00 69 1051.3
20260831113142 69 202 6.1 0.0 0.00 0.06 0.00 69 1051.4
20260831113029 69 225 12.2 0.0 0.00 0.06 0.00 68 1051.3
20260831112908 70 202 1.7 0.0 0.00 0.06 0.00 67 1051.3
20260831112748 70 202 12.2 0.0 0.00 0.06 0.00 66 1051.3
20260831112635 71 315 6.1 0.0 0.00 0.06 0.00 66 1051.2
20260831112530 71 180 3.5 0.0 0.00 0.06 0.00 65 1051.2
20260831112425 71 202 6.1 0.0 0.00 0.06 0.00 64 1051.2
20260831112310 71 292 0.0 0.0 0.00 0.06 0.00 62 1051.2
20260831112157 72 225 7.0 0.0 0.00 0.06 0.00 62 1051.2
20260831112044 73 270 6.1 0.0 0.00 0.06 0.00 61 1051.2
20260831111930 73 180 5.2 0.0 0.00 0.06 0.00 60 1051.2
20260831111811 74 135 7.8 0.0 0.00 0.06 0.00 60 1051.2
20260831111650 74 202 16.5 0.0 0.00 0.06 0.00 61 1051.2
20260831111545 75 225 12.2 0.0 0.00 0.06 0.00 61 1051.2
20260831111433 74 247 6.1 0.0 0.00 0.06 0.00 61 1051.2
20260831111327 74 247 10.4 0.0 0.00 0.06 0.00 62 1051.2
20260831111214 74 247 6.1 0.0 0.00 0.06 0.00 62 1051.3
20260831111102 74 247 4.3 0.0 0.00 0.06 0.00 63 1051.2
20260831110955 74 180 7.0 0.0 0.00 0.06 0.00 63 1051.2
20260831110841 74 270 2.6 0.0 0.00 0.06 0.00 61 1051.2
20260831110720 75 157 12.2 0.0 0.00 0.06 0.00 61 1051.3
20260831110559 75 180 5.2 0.0 0.00 0.06 0.00 61 1051.2
20260831110438 75 202 9.6 0.0 0.00 0.06 0.00 61 1051.2
20260831110312 75 202 6.1 0.0 0.00 0.06 0.00 61 1051.2
20260831110205 75 225 7.0 0.0 0.00 0.06 0.00 62 1051.2
20260831110052 75 247 3.5 0.0 0.00 0.06 0.00 62 1051.2
20260831105939 75 180 8.7 0.0 0.00 0.06 0.00 62 1051.2
20260831105826 75 270 10.4 0.0 0.00 0.06 0.00 63 1051.2
20260831105712 75 270 3.5 0.0 0.00 0.06 0.00 61 1051.2
20260831105558 75 247 11.3 0.0 0.00 0.06 0.00 63 1051.3
20260831105439 75 270 5.2 0.0 0.00 0.06 0.00 64 1051.2
20260831105332 75 225 8.7 0.0 0.00 0.06 0.00 64 1051.2
20260831105212 75 225 7.0 0.0 0.00 0.06 0.00 63 1051.2
20260831105057 75 292 7.8 0.0 0.00 0.06 0.00 64 1051.3
20260831104945 75 292 4.3 0.0 0.00 0.06 0.00 64 1051.3
20260831104834 74 180 6.1 0.0 0.00 0.06 0.00 64 1051.4
20260831104727 74 247 2.6 0.0 0.00 0.06 0.00 65 1051.4
20260831104614 73 225 6.1 0.0 0.00 0.06 0.00 66 1051.3
20260831104509 73 180 7.0 0.0 0.00 0.06 0.00 65 1051.3
20260831104355 73 247 5.2 0.0 0.00 0.06 0.00 66 1051.4
20260831104237 73 225 13.0 0.0 0.00 0.06 0.00 66 1051.3
20260831104129 73 202 16.5 0.0 0.00 0.06 0.00 66 1051.3
20260831104016 73 180 7.8 0.0 0.00 0.06 0.00 68 1051.2
20260831103911 73 247 2.6 0.0 0.00 0.06 0.00 68 1051.4
20260831103752 73 180 3.5 0.0 0.00 0.06 0.00 68 1051.2
20260831103645 73 247 6.1 0.0 0.00 0.06 0.00 69 1051.2
20260831103534 73 202 4.3 0.0 0.00 0.06 0.00 68 1051.4
20260831103426 73 225 3.5 0.0 0.00 0.06 0.00 67 1051.4
20260831103313 73 157 8.7 0.0 0.00 0.06 0.00 68 1051.4
20260831103153 73 247 5.2 0.0 0.00 0.06 0.00 69 1051.3
20260831103031 73 180 6.1 0.0 0.00 0.06 0.00 68 1051.5
20260831102910 73 225 5.2 0.0 0.00 0.06 0.00 68 1051.5
20260831102757 72 225 7.0 0.0 0.00 0.06 0.00 68 1051.5
20260831102635 72 292 0.0 0.0 0.00 0.06 0.00 69 1051.5
20260831102517 72 225 6.1 0.0 0.00 0.06 0.00 69 1051.5
20260831102410 72 202 7.0 0.0 0.00 0.06 0.00 68 1051.4
20260831102257 72 202 14.8 0.0 0.00 0.06 0.00 68 1051.5
20260831102143 72 180 5.2 0.0 0.00 0.06 0.00 69 1051.4
20260831102022 71 180 4.3 0.0 0.00 0.06 0.00 72 1051.5
20260831101909 71 180 5.2 0.0 0.00 0.06 0.00 73 1051.4
20260831101741 71 247 13.9 0.0 0.00 0.06 0.00 73 1051.5
20260831101633 71 157 5.2 0.0 0.00 0.06 0.00 74 1051.5
20260831101519 71 180 6.1 0.0 0.00 0.06 0.00 75 1051.4
20260831101358 71 270 0.0 0.0 0.00 0.06 0.00 75 1051.5
20260831101245 71 247 2.6 0.0 0.00 0.06 0.00 75 1051.5
20260831101133 70 225 11.3 0.0 0.00 0.06 0.00 75 1051.5
20260831101027 70 225 1.7 0.0 0.00 0.06 0.00 74 1051.6
20260831100922 70 180 7.8 0.0 0.00 0.06 0.00 72 1051.6
20260831100816 70 270 3.5 0.0 0.00 0.06 0.00 71 1051.5
20260831100710 70 225 10.4 0.0 0.00 0.06 0.00 71 1051.6
20260831100559 70 225 5.2 0.0 0.00 0.06 0.00 70 1051.5
20260831100454 71 225 13.0 0.0 0.00 0.06 0.00 70 1051.5
20260831100338 71 247 2.6 0.0 0.00 0.06 0.00 70 1051.6
20260831100217 71 247 7.0 0.0 0.00 0.06 0.00 71 1051.7
20260831100050 71 247 7.0 0.0 0.00 0.06 0.00 71 1051.6
20260831095943 71 202 6.1 0.0 0.00 0.06 0.00 71 1051.7
20260831095833 71 180 13.0 0.0 0.00 0.06 0.00 71 1051.7
20260831095726 71 157 5.2 0.0 0.00 0.06 0.00 70 1051.7
20260831095620 71 225 7.8 0.0 0.00 0.06 0.00 71 1051.7
20260831095516 71 180 7.0 0.0 0.00 0.06 0.00 71 1051.7
20260831095410 71 180 5.2 0.0 0.00 0.06 0.00 71 1051.6
20260831095258 71 225 8.7 0.0 0.00 0.06 0.00 71 1051.7
20260831095151 71 225 6.1 0.0 0.00 0.06 0.00 71 1051.6
20260831095031 71 202 5.2 0.0 0.00 0.06 0.00 70 1051.7
20260831094919 71 202 7.0 0.0 0.00 0.06 0.00 70 1051.7
20260831094805 71 270 8.7 0.0 0.00 0.06 0.00 70 1051.6
20260831094653 71 180 7.0 0.0 0.00 0.06 0.00 70 1051.7
20260831094546 71 225 13.9 0.0 0.00 0.06 0.00 72 1051.8
20260831094425 71 225 4.3 0.0 0.00 0.06 0.00 71 1051.8
20260831094303 71 270 5.2 0.0 0.00 0.06 0.00 72 1051.8
20260831094153 71 202 9.6 0.0 0.00 0.06 0.00 72 1051.8
20260831094047 70 202 4.3 0.0 0.00 0.06 0.00 72 1051.8
20260831093941 70 247 6.1 0.0 0.00 0.06 0.00 72 1051.9
20260831093838 70 180 7.0 0.0 0.00 0.06 0.00 71 1051.8
20260831093730 70 180 9.6 0.0 0.00 0.06 0.00 70 1051.9
20260831093609 71 225 5.2 0.0 0.00 0.06 0.00 70 1051.8
20260831093458 71 202 5.2 0.0 0.00 0.06 0.00 69 1051.8
20260831093351 71 247 4.3 0.0 0.00 0.06 0.00 69 1051.8
20260831093229 72 270 6.1 0.0 0.00 0.06 0.00 68 1051.8
20260831093100 72 157 5.2 0.0 0.00 0.06 0.00 68 1051.8
20260831092947 72 225 3.5 0.0 0.00 0.06 0.00 70 1051.7
20260831092842 71 202 4.3 0.0 0.00 0.06 0.00 72 1051.7
20260831092728 71 202 11.3 0.0 0.00 0.06 0.00 72 1051.7
20260831092607 70 247 0.0 0.0 0.00 0.06 0.00 73 1051.7
20260831092453 70 202 7.8 0.0 0.00 0.06 0.00 74 1051.8
20260831092339 70 247 7.0 0.0 0.00 0.06 0.00 73 1051.7
20260831092226 69 180 5.2 0.0 0.00 0.06 0.00 73 1051.7
20260831092115 69 225 3.5 0.0 0.00 0.06 0.00 73 1051.7
20260831092008 70 202 5.2 0.0 0.00 0.06 0.00 71 1051.7
20260831091854 70 180 7.8 0.0 0.00 0.06 0.00 71 1051.7
20260831091742 70 202 6.1 0.0 0.00 0.06 0.00 70 1051.7
20260831091628 71 180 7.0 0.0 0.00 0.06 0.00 69 1051.6
20260831091506 71 180 5.2 0.0 0.00 0.06 0.00 69 1051.7
20260831091346 71 180 13.0 0.0 0.00 0.06 0.00 68 1051.7
20260831091226 72 202 11.3 0.0 0.00 0.06 0.00 67 1051.7
20260831091121 73 180 5.2 0.0 0.00 0.06 0.00 67 1051.7
20260831091015 73 225 5.2 0.0 0.00 0.06 0.00 67 1051.6
20260831090846 73 157 4.3 0.0 0.00 0.06 0.00 66 1051.6
20260831090733 74 225 10.4 0.0 0.00 0.06 0.00 66 1051.5
20260831090629 74 180 7.0 0.0 0.00 0.06 0.00 66 1051.5
20260831090523 74 180 7.0 0.0 0.00 0.06 0.00 65 1051.5
20260831090419 74 247 4.3 0.0 0.00 0.06 0.00 66 1051.4
20260831090313 74 225 6.1 0.0 0.00 0.06 0.00 66 1051.4
20260831090209 74 202 8.7 0.0 0.00 0.06 0.00 66 1051.4
20260831090103 74 225 5.2 0.0 0.00 0.06 0.00 65 1051.4
20260831085957 74 202 8.7 0.0 0.00 0.08 0.00 66 1051.4
20260831085839 74 247 8.7 0.0 0.00 0.08 0.00 67 1051.4
20260831085731 74 180 3.5 0.0 0.00 0.08 0.00 67 1051.4
20260831085610 74 157 7.0 0.0 0.00 0.08 0.00 66 1051.3
20260831085450 74 202 5.2 0.0 0.00 0.08 0.00 67 1051.4
20260831085345 74 225 14.8 0.0 0.00 0.08 0.00 66 1051.3
20260831085223 74 180 4.3 0.0 0.00 0.08 0.00 67 1051.3
20260831085110 74 202 6.1 0.0 0.00 0.08 0.00 68 1051.4
20260831084941 73 202 7.0 0.0 0.00 0.08 0.00 69 1051.3
20260831084819 73 225 7.0 0.0 0.00 0.08 0.00 69 1051.4
20260831084658 73 247 5.2 0.0 0.00 0.08 0.00 69 1051.4
20260831084548 73 202 5.2 0.0 0.00 0.08 0.00 70 1051.4
20260831084441 73 247 4.3 0.0 0.00 0.08 0.00 70 1051.4
20260831084319 73 292 7.8 0.0 0.00 0.08 0.00 71 1051.4
20260831084207 73 225 4.3 0.0 0.00 0.08 0.00 72 1051.3
20260831084100 73 270 8.7 0.0 0.00 0.08 0.00 73 1051.4
20260831083948 72 225 9.6 0.0 0.00 0.08 0.00 74 1051.4
20260831083834 71 180 7.0 0.0 0.00 0.08 0.00 76 1051.3
20260831083713 71 180 2.6 0.0 0.00 0.08 0.00 77 1051.4
20260831083553 70 225 5.2 0.0 0.00 0.08 0.00 77 1051.3
20260831083442 70 202 6.1 0.0 0.00 0.08 0.00 77 1051.3
20260831083336 69 202 6.1 0.0 0.00 0.08 0.00 78 1051.4
20260831083215 69 180 13.9 0.0 0.00 0.08 0.00 79 1051.4
20260831083054 69 202 7.8 0.0 0.00 0.08 0.00 79 1051.4
20260831082923 69 292 7.8 0.0 0.00 0.08 0.00 78 1051.4
20260831082759 69 202 5.2 0.0 0.02 0.08 0.00 79 1051.4
20260831082645 69 157 6.1 0.0 0.02 0.08 0.00 79 1051.3
20260831082530 68 247 3.5 0.0 0.02 0.08 0.00 80 1051.4
20260831082407 68 225 5.2 0.0 0.02 0.08 0.00 80 1051.3
20260831082254 68 270 5.2 0.0 0.02 0.08 0.00 80 1051.3
20260831082132 68 225 7.8 0.0 0.02 0.08 0.00 79 1051.4
20260831082009 68 225 7.8 0.0 0.02 0.08 0.00 79 1051.3
20260831081859 68 135 1.7 0.0 0.02 0.08 0.00 80 1051.3
20260831081753 68 180 7.8 0.0 0.02 0.08 0.00 80 1051.5
20260831081631 68 202 4.3 0.0 0.02 0.08 0.00 81 1051.4
20260831081511 67 202 7.0 0.0 0.02 0.08 0.00 80 1051.3
20260831081358 67 180 7.0 0.0 0.02 0.08 0.00 81 1051.4
20260831081243 68 180 8.7 0.0 0.02 0.08 0.00 81 1051.4
20260831081114 67 135 2.6 0.0 0.02 0.08 0.00 81 1051.5
20260831081001 67 225 5.2 0.0 0.02 0.08 0.00 81 1051.4
20260831080848 67 202 3.5 0.0 0.02 0.08 0.00 81 1051.5
20260831080728 67 180 13.9 0.0 0.02 0.08 0.00 81 1051.5
20260831080622 67 247 11.3 0.0 0.02 0.08 0.00 80 1051.5
20260831080503 67 157 12.2 0.0 0.02 0.08 0.00 80 1051.5
20260831080355 67 180 10.4 0.0 0.02 0.08 0.00 80 1051.6
20260831080235 67 202 6.1 0.0 0.02 0.08 0.00 80 1051.6
20260831080121 67 157 9.6 0.0 0.02 0.08 0.00 80 1051.6
20260831075953 67 157 11.3 0.0 0.02 0.08 0.00 80 1051.6
20260831075846 67 225 9.6 0.0 0.02 0.08 0.00 80 1051.4
20260831075740 67 202 7.0 0.0 0.02 0.08 0.00 80 1051.5
20260831075626 68 157 13.9 0.0 0.02 0.08 0.00 79 1051.6
20260831075521 68 202 7.0 0.0 0.02 0.08 0.00 79 1051.5
20260831075414 68 157 7.0 0.0 0.02 0.08 0.00 78 1051.6
20260831075308 68 225 5.2 0.0 0.02 0.08 0.00 78 1051.6
20260831075148 68 180 6.1 0.0 0.02 0.08 0.00 77 1051.6
20260831075043 69 225 10.4 0.0 0.02 0.08 0.00 77 1051.6
20260831074930 69 247 5.2 0.0 0.02 0.08 0.00 76 1051.6
20260831074816 70 225 9.6 0.0 0.02 0.08 0.00 75 1051.6
20260831074654 70 202 7.8 0.0 0.02 0.08 0.00 76 1051.6
20260831074533 70 180 1.7 0.0 0.02 0.08 0.00 77 1051.6
20260831074404 70 202 7.8 0.0 0.02 0.08 0.00 76 1051.5
20260831074251 70 202 10.4 0.0 0.02 0.08 0.00 75 1051.6
20260831074138 71 180 8.7 0.0 0.02 0.08 0.00 74 1051.5
20260831074018 71 202 17.4 0.0 0.02 0.08 0.00 75 1051.6
20260831073912 71 202 0.0 0.0 0.02 0.08 0.00 79 1051.6
20260831073404 67 180 99.1 0.0 0.02 0.08 0.00 82 1051.5
20260831072741 67 180 99.1 0.0 0.00 0.06 0.00 82 1051.6
20260831072111 68 180 99.1 0.0 0.00 0.06 0.00 81 1051.5
20260831071506 69 180 99.1 0.0 0.00 0.06 0.00 81 1051.3
20260831070900 68 180 99.1 0.0 0.00 0.06 0.00 88 1051.3
20260831070237 65 180 99.1 0.0 0.00 0.06 0.00 92 1051.4
20260831065615 64 180 99.1 0.0 0.00 0.06 0.00 92 1051.6
20260831065030 63 180 99.1 0.0 0.00 0.06 0.00 92 1051.6
20260831064416 63 180 99.1 0.0 0.00 0.06 0.00 93 1051.6
20260831063819 62 180 99.1 0.0 0.00 0.06 0.00 93 1051.6
20260831063221 62 180 99.1 0.0 0.00 0.06 0.00 94 1051.6
20260831062608 62 180 99.1 0.0 0.00 0.06 0.00 94 1051.5
20260831061953 62 180 99.1 0.0 0.00 0.06 0.00 94 1051.6
20260831061358 63 180 99.1 0.0 0.00 0.06 0.00 94 1051.6
20260831060750 63 180 99.1 0.0 0.00 0.06 0.00 94 1051.7
20260831060145 63 180 99.1 0.0 0.00 0.06 0.00 94 1051.7
20260831055541 64 180 99.1 0.0 0.00 0.06 0.00 94 1051.7
20260831054943 63 180 99.1 0.0 0.00 0.06 0.00 94 1051.7
20260831054330 61 180 99.1 0.0 0.00 0.06 0.00 94 1051.4
20260831053730 61 180 99.1 0.0 0.00 0.06 0.00 95 1051.7
20260831053133 61 180 99.1 0.0 0.00 0.06 0.00 95 1051.7
20260831052528 61 180 99.1 0.0 0.00 0.06 0.00 95 1051.6
20260831051930 61 180 99.1 0.0 0.00 0.06 0.00 95 1051.7
20260831051316 61 180 99.1 0.0 0.00 0.06 0.00 95 1051.8
20260831050720 61 180 99.1 0.0 0.00 0.06 0.00 95 1051.8
20260831050113 61 180 99.1 0.0 0.00 0.06 0.00 95 1051.8
20260831045459 61 180 99.1 0.0 0.00 0.06 0.00 95 1051.7
20260831044903 61 180 99.1 0.0 0.00 0.06 0.00 95 1051.5
20260831044256 61 180 99.1 0.0 0.00 0.06 0.00 95 1051.6
20260831043658 61 180 99.1 0.0 0.00 0.06 0.00 95 1051.5
20260831043045 61 180 99.1 0.0 0.00 0.06 0.00 95 1051.5
20260831042415 61 180 99.1 0.0 0.00 0.06 0.00 95 1051.6
20260831041802 61 180 99.1 0.0 0.00 0.06 0.00 95 1051.5
20260831041148 61 180 99.1 0.0 0.00 0.06 0.00 95 1051.5
20260831040520 61 180 99.1 0.0 0.00 0.06 0.00 95 1051.5
20260831035858 61 180 99.1 0.0 0.00 0.12 0.00 95 1051.4
20260831035234 61 180 99.1 0.0 0.00 0.12 0.00 95 1051.5
20260831034556 61 180 99.1 0.0 0.00 0.12 0.00 95 1051.6
20260831033934 61 180 99.1 0.0 0.00 0.12 0.00 95 1051.7
20260831033304 61 180 99.1 0.0 0.00 0.12 0.00 95 1051.8
20260831032634 61 180 99.1 0.0 0.00 0.12 0.00 95 1051.8
20260831032005 61 180 99.1 0.0 0.00 0.12 0.00 95 1051.8
20260831031334 61 180 99.1 0.0 0.00 0.12 0.00 95 1051.8
20260831030705 61 180 99.1 0.0 0.00 0.12 0.00 95 1051.9
20260831030034 61 180 99.1 0.0 0.02 0.12 0.00 95 1051.9
20260831025412 61 180 99.1 0.0 0.02 0.12 0.00 95 1051.9
20260831024734 61 180 99.1 0.0 0.04 0.12 0.00 95 1052.0
20260831024104 61 180 99.1 0.0 0.04 0.12 0.00 95 1051.9
20260831023434 61 180 99.1 0.0 0.04 0.12 0.00 95 1052.2
20260831022804 61 180 99.1 0.0 0.04 0.12 0.00 95 1052.2
20260831022134 61 180 99.1 0.0 0.04 0.12 0.00 95 1052.1
20260831021456 61 180 99.1 0.0 0.04 0.12 0.00 95 1051.9
20260831020826 61 180 99.1 0.0 0.04 0.12 0.00 95 1052.0
20260831020148 61 180 99.1 0.0 0.02 0.10 0.00 95 1052.0
20260831015534 61 180 99.1 0.0 0.02 0.14 0.00 95 1052.3
20260831014905 61 180 99.1 0.0 0.02 0.14 0.00 95 1052.3
20260831014234 61 180 99.1 0.0 0.00 0.12 0.00 95 1052.4
20260831013605 61 180 99.1 0.0 0.00 0.12 0.00 95 1052.4
20260831012935 61 180 99.1 0.0 0.00 0.12 0.00 95 1052.5
20260831012313 61 180 99.1 0.0 0.00 0.12 0.00 95 1052.5
20260831011620 61 157 0.0 0.0 0.00 0.12 0.00 94 1052.5
20260831011513 60 180 0.0 0.0 0.00 0.12 0.00 95 1052.6
20260831011200 60 157 6.1 0.0 0.00 0.12 0.00 94 1052.7
20260831011053 60 135 0.0 0.0 0.00 0.12 0.00 94 1052.6
20260831010940 60 157 0.0 0.0 0.00 0.12 0.00 94 1052.7
20260831010827 60 135 0.0 0.0 0.00 0.12 0.00 94 1052.7
20260831010705 60 180 2.6 0.0 0.00 0.12 0.00 94 1052.7
20260831010545 60 157 2.6 0.0 0.00 0.12 0.00 94 1052.8
20260831010440 60 157 0.0 0.0 0.00 0.12 0.00 94 1052.8
20260831010325 60 135 0.0 0.0 0.00 0.12 0.00 94 1052.9
20260831005939 60 202 4.3 0.0 0.00 0.12 0.00 94 1052.9
20260831005833 60 112 0.9 0.0 0.00 0.12 0.00 94 1052.9
20260831005721 60 135 0.0 0.0 0.00 0.12 0.00 94 1053.0
20260831005610 60 135 0.0 0.0 0.00 0.12 0.00 94 1053.0
20260831005502 60 135 0.0 0.0 0.00 0.12 0.00 94 1053.0
20260831005349 60 157 0.0 0.0 0.00 0.12 0.00 94 1053.1
20260831005230 60 157 0.0 0.0 0.00 0.12 0.00 94 1053.0
20260831005115 60 157 0.0 0.0 0.00 0.12 0.00 94 1053.0
20260831005001 60 135 0.0 0.0 0.00 0.12 0.00 94 1053.1
20260831004843 60 157 0.0 0.0 0.00 0.12 0.00 94 1053.1
20260831004737 60 180 0.0 0.0 0.00 0.12 0.00 94 1053.2
20260831004622 60 180 5.2 0.0 0.00 0.12 0.00 94 1053.1
20260831004503 60 157 0.9 0.0 0.00 0.12 0.00 94 1053.1
20260831004350 60 112 0.0 0.0 0.00 0.12 0.00 94 1053.1
20260831004237 60 135 0.9 0.0 0.00 0.12 0.00 94 1053.2
20260831004130 60 180 0.9 0.0 0.00 0.12 0.00 94 1053.2
20260831004016 60 157 1.7 0.0 0.00 0.12 0.00 94 1053.1
20260831003905 60 180 2.6 0.0 0.00 0.12 0.00 94 1053.3
20260831003758 60 157 0.0 0.0 0.00 0.12 0.00 94 1053.3
20260831003637 60 157 0.0 0.0 0.00 0.12 0.00 94 1053.2
20260831003524 60 157 0.0 0.0 0.00 0.12 0.00 94 1053.2
20260831003356 60 180 0.0 0.0 0.00 0.12 0.00 94 1053.3
20260831003249 60 180 3.5 0.0 0.00 0.12 0.00 94 1053.3
20260831003138 60 157 2.6 0.0 0.00 0.12 0.00 94 1053.3
20260831003032 60 157 0.0 0.0 0.00 0.12 0.00 94 1053.3
20260831002903 60 157 0.0 0.0 0.00 0.12 0.00 94 1053.3
20260831002742 60 135 0.0 0.0 0.00 0.12 0.00 94 1053.3
20260831002616 60 157 0.0 0.0 0.00 0.12 0.00 94 1053.3
20260831002502 60 157 0.0 0.0 0.00 0.12 0.00 94 1053.3
20260831002339 60 180 0.0 0.0 0.00 0.12 0.00 94 1053.3
20260831002210 60 202 2.6 0.0 0.00 0.12 0.00 94 1053.3
20260831002104 60 157 0.0 0.0 0.00 0.12 0.00 94 1053.4
20260831001952 60 180 0.0 0.0 0.00 0.12 0.00 94 1053.5
20260831001845 60 180 0.0 0.0 0.00 0.12 0.00 94 1053.4
20260831001732 60 157 0.0 0.0 0.00 0.12 0.00 94 1053.5
20260831001603 60 157 0.0 0.0 0.00 0.12 0.00 94 1053.5
20260831001449 60 157 0.0 0.0 0.00 0.12 0.00 94 1053.5
20260831001327 60 157 0.0 0.0 0.00 0.12 0.00 94 1053.6
20260831001218 60 157 0.0 0.0 0.00 0.12 0.00 94 1053.6
20260831001112 60 157 1.7 0.0 0.00 0.12 0.00 94 1053.5
20260831001007 60 157 0.0 0.0 0.00 0.12 0.00 94 1053.6
20260831000900 60 157 0.0 0.0 0.00 0.12 0.00 94 1053.5
20260831000746 60 180 0.0 0.0 0.00 0.12 0.00 94 1053.5
20260831000617 61 157 0.0 0.0 0.00 0.12 0.00 94 1053.6
20260831000505 61 157 0.0 0.0 0.00 0.12 0.00 94 1053.6
20260831000350 61 180 6.1 0.0 0.00 0.12 0.00 94 1053.6
20260831000233 61 157 0.0 0.0 0.00 0.12 0.00 94 1053.6
20260831000116 61 157 0.9 0.0 0.00 0.12 0.00 94 1053.7
20260830235957 61 157 0.0 0.0 0.00 0.16 0.00 94 1053.7
20260830235842 61 180 3.5 0.0 0.00 0.16 0.00 94 1053.7
20260830235729 61 180 0.0 0.0 0.00 0.16 0.00 94 1053.7
20260830235608 61 180 3.5 0.0 0.00 0.16 0.00 94 1053.6
20260830235454 61 157 0.0 0.0 0.00 0.16 0.00 94 1053.7
20260830235342 61 157 0.9 0.0 0.00 0.16 0.00 94 1053.7
20260830235228 61 157 0.0 0.0 0.00 0.16 0.00 94 1053.7
20260830235110 61 180 4.3 0.0 0.00 0.16 0.00 94 1053.7
20260830235003 60 180 5.2 0.0 0.00 0.16 0.00 94 1053.6
20260830234841 61 135 0.0 0.0 0.00 0.16 0.00 94 1053.7
20260830234720 60 180 4.3 0.0 0.00 0.16 0.00 94 1053.7
20260830234607 61 157 4.3 0.0 0.00 0.16 0.00 94 1053.7
20260830234503 61 157 0.0 0.0 0.00 0.16 0.00 94 1053.8
20260830234357 61 157 0.0 0.0 0.00 0.16 0.00 94 1053.7
20260830234235 61 180 0.0 0.0 0.00 0.16 0.00 94 1053.8
20260830234115 61 157 1.7 0.0 0.00 0.16 0.00 94 1053.8
20260830234003 61 180 2.6 0.0 0.00 0.16 0.00 94 1053.8
20260830233858 61 135 0.0 0.0 0.00 0.16 0.00 94 1053.8
20260830233752 61 157 0.9 0.0 0.00 0.16 0.00 94 1053.8
20260830233648 61 157 0.0 0.0 0.00 0.16 0.00 94 1053.8
20260830233543 61 157 0.0 0.0 0.00 0.16 0.00 94 1053.8
20260830233436 61 157 6.1 0.0 0.00 0.16 0.00 94 1053.9
20260830233324 61 135 1.7 0.0 0.00 0.16 0.00 94 1053.9
20260830233213 61 157 0.0 0.0 0.00 0.16 0.00 94 1053.9
20260830233105 61 157 5.2 0.0 0.00 0.16 0.00 93 1053.9
20260830232952 61 180 0.0 0.0 0.00 0.16 0.00 93 1053.9
20260830232839 61 135 1.7 0.0 0.00 0.16 0.00 94 1053.9
20260830232727 61 157 3.5 0.0 0.00 0.16 0.00 94 1053.9
20260830232621 61 180 0.0 0.0 0.00 0.16 0.00 93 1054.0
20260830232510 61 180 0.0 0.0 0.00 0.16 0.00 93 1053.9
20260830232402 61 135 0.0 0.0 0.00 0.16 0.00 93 1053.9
20260830232251 61 180 5.2 0.0 0.00 0.16 0.00 93 1054.0
20260830232145 61 157 0.0 0.0 0.00 0.16 0.00 93 1054.0
20260830232031 61 157 4.3 0.0 0.00 0.16 0.00 93 1054.0
20260830231918 61 202 0.0 0.0 0.00 0.16 0.00 93 1054.0
20260830231758 61 180 0.0 0.0 0.00 0.16 0.00 93 1053.9
20260830231652 61 135 3.5 0.0 0.00 0.16 0.00 93 1054.0
20260830231547 61 135 0.0 0.0 0.00 0.16 0.00 93 1054.0
20260830231426 61 157 0.0 0.0 0.00 0.16 0.00 93 1053.9
20260830231304 61 157 1.7 0.0 0.00 0.16 0.00 93 1054.0
20260830231135 61 135 0.0 0.0 0.00 0.16 0.00 93 1054.0
20260830231024 61 157 3.5 0.0 0.00 0.16 0.00 93 1054.0
20260830230917 61 157 0.0 0.0 0.00 0.16 0.00 93 1054.1
20260830230756 61 157 0.0 0.0 0.00 0.16 0.00 93 1054.1
20260830230652 61 157 0.0 0.0 0.00 0.16 0.00 93 1054.1
20260830230545 61 157 0.0 0.0 0.00 0.16 0.00 93 1054.1
20260830230424 61 157 0.0 0.0 0.00 0.16 0.00 93 1054.1
20260830230304 61 157 0.0 0.0 0.00 0.16 0.00 93 1054.1
20260830230150 61 180 0.0 0.0 0.00 0.16 0.00 93 1054.2
20260830230038 61 180 0.0 0.0 0.00 0.16 0.00 93 1054.1
20260830225924 61 157 0.0 0.0 0.00 0.16 0.00 93 1054.2
20260830225802 61 157 0.0 0.0 0.00 0.16 0.00 93 1054.3
20260830225642 61 157 0.0 0.0 0.00 0.16 0.00 93 1054.2
20260830225537 61 157 0.0 0.0 0.00 0.16 0.00 93 1054.3
20260830225416 61 180 0.0 0.0 0.00 0.16 0.00 93 1054.3
20260830225313 61 180 0.0 0.0 0.00 0.16 0.00 93 1054.3
20260830225159 61 180 0.0 0.0 0.00 0.16 0.00 93 1054.2
20260830225030 61 180 0.0 0.0 0.00 0.16 0.00 93 1054.4
20260830224908 61 180 0.0 0.0 0.00 0.16 0.00 93 1054.4
20260830224737 61 180 0.0 0.0 0.00 0.16 0.00 93 1054.4
20260830224626 61 180 0.0 0.0 0.00 0.16 0.00 93 1054.3
20260830224519 61 180 2.6 0.0 0.00 0.16 0.00 93 1054.4
20260830224406 61 180 0.0 0.0 0.00 0.16 0.00 93 1054.3
20260830224253 61 157 0.0 0.0 0.00 0.16 0.00 93 1054.3
20260830224131 61 202 0.0 0.0 0.00 0.16 0.00 93 1054.4
20260830224012 61 180 0.0 0.0 0.00 0.16 0.00 93 1054.4
20260830223906 61 180 0.0 0.0 0.00 0.16 0.00 93 1054.3
20260830223744 61 180 0.0 0.0 0.00 0.16 0.00 93 1054.4
20260830223625 61 180 0.0 0.0 0.00 0.16 0.00 93 1054.4
20260830223518 61 180 0.0 0.0 0.00 0.16 0.00 93 1054.4
20260830223405 61 180 0.0 0.0 0.00 0.16 0.00 93 1054.4
20260830223300 61 180 0.0 0.0 0.00 0.16 0.00 93 1054.5
20260830223130 61 180 0.0 0.0 0.00 0.16 0.00 93 1054.5
20260830223017 61 180 0.0 0.0 0.00 0.16 0.00 93 1054.5
20260830222912 61 180 0.0 0.0 0.00 0.16 0.00 93 1054.5
20260830222807 61 180 0.0 0.0 0.00 0.16 0.00 93 1054.4
20260830222656 61 157 0.0 0.0 0.00 0.16 0.00 93 1054.4
20260830222551 61 180 3.5 0.0 0.00 0.16 0.00 93 1054.4
20260830222444 61 180 0.0 0.0 0.00 0.16 0.00 93 1054.4
20260830222323 61 180 0.0 0.0 0.00 0.16 0.00 93 1054.4
20260830222210 61 180 0.0 0.0 0.00 0.16 0.00 93 1054.4
20260830222104 61 180 0.0 0.0 0.00 0.16 0.00 93 1054.4
20260830221951 61 180 0.0 0.0 0.00 0.16 0.00 93 1054.4
20260830221840 61 180 0.0 0.0 0.00 0.16 0.00 93 1054.4
20260830221725 62 180 0.0 0.0 0.00 0.16 0.00 93 1054.3
20260830221612 62 180 0.0 0.0 0.00 0.16 0.00 93 1054.4
20260830221508 62 157 0.0 0.0 0.00 0.16 0.00 93 1054.4
20260830221354 62 157 0.0 0.0 0.00 0.16 0.00 93 1054.4
20260830221233 62 157 0.0 0.0 0.00 0.16 0.00 93 1054.4
20260830221111 62 157 0.0 0.0 0.00 0.16 0.00 93 1054.5
20260830220950 62 180 4.3 0.0 0.00 0.16 0.00 93 1054.5
20260830220838 62 180 0.0 0.0 0.00 0.16 0.00 92 1054.4
20260830220732 62 180 0.0 0.0 0.00 0.16 0.00 92 1054.4
20260830220627 62 180 0.0 0.0 0.00 0.16 0.00 92 1054.6
20260830220516 62 180 0.0 0.0 0.00 0.16 0.00 92 1054.6
20260830220409 62 180 0.0 0.0 0.00 0.16 0.00 92 1054.6
20260830220249 62 180 0.0 0.0 0.00 0.16 0.00 92 1054.6
20260830220143 62 180 4.3 0.0 0.00 0.16 0.00 92 1054.7
20260830220030 62 180 0.0 0.0 0.00 0.16 0.00 92 1054.6
20260830215926 62 180 0.0 0.0 0.00 0.18 0.00 92 1054.6
20260830215820 62 180 0.0 0.0 0.00 0.18 0.00 92 1054.7
20260830215715 62 180 0.0 0.0 0.00 0.18 0.00 92 1054.6
20260830215555 62 180 3.5 0.0 0.00 0.18 0.00 92 1054.6
20260830215449 62 157 3.5 0.0 0.00 0.18 0.00 92 1054.6
20260830215344 62 157 0.0 0.0 0.00 0.18 0.00 92 1054.7
20260830215232 62 180 0.0 0.0 0.00 0.18 0.00 92 1054.8
20260830215126 62 180 0.0 0.0 0.00 0.18 0.00 92 1054.7
20260830215023 62 180 0.0 0.0 0.00 0.18 0.00 92 1054.8
20260830214915 62 180 0.0 0.0 0.00 0.18 0.00 92 1054.9
20260830214802 62 180 2.6 0.0 0.00 0.18 0.00 92 1054.9
20260830214649 62 180 0.0 0.0 0.00 0.18 0.00 92 1054.9
20260830214546 62 180 0.0 0.0 0.00 0.18 0.00 92 1054.9
20260830214441 62 180 0.0 0.0 0.00 0.18 0.00 92 1054.9
20260830214334 62 180 0.0 0.0 0.00 0.18 0.00 92 1054.9
20260830214213 62 180 0.0 0.0 0.00 0.18 0.00 92 1054.9
20260830214100 62 180 0.0 0.0 0.00 0.18 0.00 92 1054.8
20260830213954 62 180 0.0 0.0 0.00 0.18 0.00 92 1054.9
20260830213825 62 180 0.0 0.0 0.00 0.18 0.00 92 1054.9
20260830213712 62 180 0.0 0.0 0.00 0.18 0.00 92 1054.9
20260830213607 62 180 0.0 0.0 0.00 0.18 0.00 92 1054.9
20260830213454 62 180 0.0 0.0 0.00 0.18 0.00 92 1054.9
20260830213349 62 180 0.0 0.0 0.00 0.18 0.00 92 1054.9
20260830213238 62 180 0.0 0.0 0.00 0.18 0.00 92 1055.0
20260830213130 62 180 0.0 0.0 0.00 0.18 0.00 92 1054.9
20260830213017 62 180 0.0 0.0 0.00 0.18 0.00 91 1055.0
20260830212904 62 180 0.0 0.0 0.00 0.18 0.00 91 1055.0
20260830212758 62 180 0.0 0.0 0.00 0.18 0.00 91 1054.9
20260830212629 62 180 0.0 0.0 0.00 0.18 0.00 91 1054.9
20260830212516 62 180 0.9 0.0 0.00 0.18 0.00 91 1054.9
20260830212410 62 180 0.0 0.0 0.00 0.18 0.00 91 1054.9
20260830212306 62 180 0.0 0.0 0.00 0.18 0.00 91 1054.9
20260830212159 62 180 0.0 0.0 0.00 0.18 0.00 91 1054.9
20260830212052 62 180 0.0 0.0 0.00 0.18 0.00 91 1054.8
20260830211931 62 180 0.0 0.0 0.00 0.18 0.00 91 1054.8
20260830211817 62 180 0.9 0.0 0.00 0.18 0.00 91 1054.9
20260830211710 62 180 0.0 0.0 0.00 0.18 0.00 91 1054.9
20260830211555 62 157 3.5 0.0 0.00 0.18 0.00 91 1055.0
20260830211435 62 180 0.0 0.0 0.00 0.18 0.00 91 1054.8
20260830211322 62 202 0.0 0.0 0.00 0.18 0.00 91 1055.0
20260830211208 62 202 0.0 0.0 0.00 0.18 0.00 91 1054.9
20260830211102 62 202 0.0 0.0 0.00 0.18 0.00 91 1054.8
20260830210948 62 202 0.0 0.0 0.00 0.18 0.00 91 1055.0
20260830210826 62 202 0.0 0.0 0.00 0.18 0.00 91 1055.0
20260830210713 62 202 0.0 0.0 0.00 0.18 0.00 91 1055.0
20260830210607 62 202 0.0 0.0 0.00 0.18 0.00 91 1054.9
20260830210502 63 202 0.0 0.0 0.00 0.18 0.00 91 1054.8
20260830210356 63 202 0.0 0.0 0.00 0.18 0.00 91 1054.9
20260830210244 63 202 0.0 0.0 0.00 0.18 0.00 91 1054.9
20260830210122 63 202 0.0 0.0 0.00 0.18 0.00 91 1054.8
20260830210007 63 202 0.0 0.0 0.00 0.20 0.00 91 1054.7
20260830205837 63 180 0.0 0.0 0.00 0.20 0.00 91 1054.7
20260830205720 63 180 0.0 0.0 0.00 0.20 0.00 91 1054.7
20260830205615 63 180 0.0 0.0 0.00 0.20 0.00 91 1054.7
20260830205508 63 180 0.0 0.0 0.00 0.20 0.00 91 1054.6
20260830205346 63 180 0.0 0.0 0.00 0.20 0.00 91 1054.7
20260830205233 63 180 0.0 0.0 0.00 0.20 0.00 91 1054.8
20260830205126 63 180 0.0 0.0 0.00 0.20 0.00 91 1054.8
20260830205012 63 180 0.0 0.0 0.00 0.20 0.00 91 1054.7
20260830204905 63 202 0.0 0.0 0.00 0.20 0.00 91 1054.7
20260830204800 63 180 0.0 0.0 0.00 0.20 0.00 91 1054.7
20260830204654 63 202 0.0 0.0 0.00 0.20 0.00 91 1054.6
20260830204547 63 202 0.0 0.0 0.00 0.20 0.00 91 1054.7
20260830204442 63 202 0.0 0.0 0.00 0.20 0.00 91 1054.6
20260830204329 63 202 0.0 0.0 0.00 0.20 0.00 91 1054.7
20260830204209 63 202 0.0 0.0 0.00 0.20 0.00 91 1054.7
20260830204105 63 202 0.0 0.0 0.00 0.20 0.00 91 1054.8
20260830203957 63 202 0.0 0.0 0.00 0.20 0.00 91 1054.8
20260830203845 63 202 0.0 0.0 0.00 0.20 0.00 91 1054.8
20260830203739 63 202 0.0 0.0 0.00 0.20 0.00 91 1055.0
20260830203634 64 202 0.0 0.0 0.00 0.20 0.00 91 1054.9
20260830203520 64 202 4.3 0.0 0.00 0.20 0.00 91 1055.0
20260830203408 64 202 0.9 0.0 0.00 0.20 0.00 91 1055.0
20260830203301 64 202 5.2 0.0 0.00 0.20 0.00 91 1054.9
20260830203138 64 202 0.0 0.0 0.00 0.20 0.00 91 1054.8
20260830203016 64 202 1.7 0.0 0.00 0.20 0.00 91 1054.8
20260830202855 64 202 4.3 0.0 0.00 0.20 0.00 91 1054.8
20260830202734 64 202 0.0 0.0 0.00 0.20 0.00 91 1054.8
20260830202629 64 202 0.0 0.0 0.00 0.20 0.00 91 1054.8
20260830202515 64 202 0.0 0.0 0.00 0.20 0.00 91 1054.8
20260830202401 64 202 0.0 0.0 0.00 0.20 0.00 91 1054.8
20260830202255 64 202 0.0 0.0 0.00 0.20 0.00 91 1055.0
20260830202148 64 202 0.0 0.0 0.00 0.20 0.00 91 1055.0
20260830202028 64 202 0.0 0.0 0.00 0.20 0.00 91 1055.0
20260830201920 64 202 0.0 0.0 0.00 0.20 0.00 91 1055.0
20260830201757 64 202 0.0 0.0 0.00 0.20 0.00 91 1055.0
20260830201628 64 202 0.0 0.0 0.00 0.20 0.00 91 1055.0
20260830201515 64 202 0.0 0.0 0.00 0.20 0.00 91 1054.9
20260830201402 64 202 0.0 0.0 0.00 0.20 0.00 91 1055.0
20260830201257 64 202 0.9 0.0 0.00 0.20 0.00 91 1055.0
20260830201142 64 202 1.7 0.0 0.00 0.20 0.00 91 1055.0
20260830201036 64 202 0.0 0.0 0.00 0.20 0.00 91 1055.0
20260830200914 64 202 3.5 0.0 0.00 0.20 0.00 91 1054.9
20260830200753 64 202 0.0 0.0 0.00 0.20 0.00 90 1055.1
20260830200640 64 202 0.0 0.0 0.00 0.20 0.00 90 1055.0
20260830200527 64 202 0.0 0.0 0.00 0.20 0.00 90 1055.0
20260830200421 64 202 0.0 0.0 0.00 0.20 0.00 90 1055.0
20260830200316 64 202 0.0 0.0 0.00 0.20 0.00 90 1055.0
20260830200155 64 202 0.0 0.0 0.00 0.20 0.00 90 1055.1
20260830200040 64 202 0.0 0.0 0.00 0.20 0.00 90 1055.1
20260830195935 64 202 0.0 0.0 0.00 0.20 0.00 90 1055.1
20260830195821 64 202 0.0 0.0 0.00 0.20 0.00 90 1055.1
20260830195711 64 202 0.0 0.0 0.00 0.20 0.00 90 1055.1
20260830195604 64 202 0.0 0.0 0.00 0.20 0.00 90 1055.1
20260830195450 64 202 0.0 0.0 0.00 0.20 0.00 90 1055.1
20260830195329 64 225 0.0 0.0 0.00 0.20 0.00 90 1055.1
20260830195214 64 247 0.0 0.0 0.00 0.20 0.00 90 1055.1
20260830195102 64 247 0.0 0.0 0.00 0.20 0.00 89 1055.1
20260830194949 64 247 0.0 0.0 0.00 0.20 0.00 89 1055.1
20260830194836 64 247 0.0 0.0 0.00 0.20 0.00 89 1055.1
20260830194722 64 247 0.0 0.0 0.00 0.20 0.00 89 1055.1
20260830194602 64 247 0.0 0.0 0.00 0.20 0.00 89 1055.1
20260830194458 64 247 0.0 0.0 0.00 0.20 0.00 89 1055.1
20260830194351 64 247 0.0 0.0 0.00 0.20 0.00 89 1055.1
20260830194221 64 247 0.0 0.0 0.00 0.20 0.00 89 1055.1
20260830194111 64 247 0.0 0.0 0.00 0.20 0.00 89 1055.1
20260830194003 64 247 0.0 0.0 0.00 0.20 0.00 89 1055.1
20260830193850 64 247 0.0 0.0 0.00 0.20 0.00 89 1055.1
20260830193746 64 247 0.0 0.0 0.00 0.20 0.00 89 1055.1
20260830193641 64 247 0.0 0.0 0.00 0.20 0.00 89 1055.1
20260830193535 64 247 0.0 0.0 0.00 0.20 0.00 89 1055.1
20260830193430 64 247 0.0 0.0 0.00 0.20 0.00 89 1055.1
20260830193308 64 247 0.0 0.0 0.00 0.20 0.00 89 1055.2
20260830193155 64 247 0.0 0.0 0.00 0.20 0.00 89 1055.2
20260830193043 64 247 0.0 0.0 0.00 0.20 0.00 89 1055.2
20260830192937 64 247 0.0 0.0 0.00 0.20 0.00 89 1055.2
20260830192825 64 247 0.0 0.0 0.00 0.20 0.00 89 1055.2
20260830192712 64 247 0.0 0.0 0.00 0.20 0.00 89 1055.2
20260830192558 64 247 0.0 0.0 0.00 0.20 0.00 89 1055.2
20260830192446 64 247 0.0 0.0 0.00 0.20 0.00 89 1055.2
20260830192340 64 247 0.0 0.0 0.00 0.20 0.00 89 1055.2
20260830192228 64 247 0.0 0.0 0.00 0.20 0.00 89 1055.2
20260830192122 64 247 0.0 0.0 0.00 0.20 0.00 89 1055.2
20260830192001 64 247 0.0 0.0 0.00 0.20 0.00 89 1055.2
20260830191858 64 247 0.0 0.0 0.00 0.20 0.00 89 1055.3
20260830191751 64 247 0.0 0.0 0.00 0.20 0.00 89 1055.3
20260830191637 64 247 0.0 0.0 0.00 0.20 0.00 89 1055.3
20260830191516 64 247 0.0 0.0 0.00 0.20 0.00 89 1055.3
20260830191406 64 247 0.0 0.0 0.00 0.20 0.00 89 1055.3
20260830191259 64 247 0.0 0.0 0.00 0.20 0.00 89 1055.2
20260830191146 64 247 0.0 0.0 0.00 0.20 0.00 88 1055.3
20260830191040 64 247 0.0 0.0 0.00 0.20 0.00 88 1055.3
20260830190935 64 247 0.0 0.0 0.00 0.20 0.00 88 1055.2
20260830190759 64 247 0.0 0.0 0.00 0.20 0.00 88 1055.2
20260830190653 64 247 0.0 0.0 0.00 0.20 0.00 88 1055.3
20260830190548 64 247 0.0 0.0 0.00 0.20 0.00 88 1055.2
20260830190437 64 247 0.0 0.0 0.00 0.20 0.00 88 1055.4
20260830190330 64 247 0.0 0.0 0.00 0.20 0.00 88 1055.4
20260830190216 64 247 0.0 0.0 0.00 0.20 0.00 88 1055.3
20260830190056 64 247 0.0 0.0 0.00 0.20 0.00 88 1055.3
20260830185951 64 247 0.0 0.0 0.00 0.20 0.00 88 1055.2
20260830185845 64 225 0.0 0.0 0.00 0.20 0.00 88 1055.2
20260830185724 64 225 0.0 0.0 0.00 0.20 0.00 88 1055.2
20260830185602 64 225 0.0 0.0 0.00 0.20 0.00 87 1055.3
20260830185434 65 247 0.9 0.0 0.00 0.20 0.00 87 1055.2
20260830185320 65 247 0.0 0.0 0.00 0.20 0.00 87 1055.2
20260830185215 65 247 0.0 0.0 0.00 0.20 0.00 87 1055.2
20260830185054 65 247 1.7 0.0 0.00 0.20 0.00 87 1055.2
20260830184933 65 247 0.0 0.0 0.00 0.20 0.00 87 1055.2
20260830184819 65 270 2.6 0.0 0.00 0.20 0.00 87 1055.2
20260830184658 65 292 1.7 0.0 0.00 0.20 0.00 87 1055.3
20260830184546 65 247 0.0 0.0 0.00 0.20 0.00 86 1055.2
20260830184432 65 247 2.6 0.0 0.00 0.20 0.00 86 1055.2
20260830184319 65 270 0.0 0.0 0.00 0.20 0.00 86 1055.2
20260830184204 66 270 0.0 0.0 0.00 0.20 0.00 85 1055.2
20260830184050 66 315 1.7 0.0 0.00 0.20 0.00 85 1055.2
20260830183921 66 225 3.5 0.0 0.00 0.20 0.00 85 1055.2
20260830183800 66 292 3.5 0.0 0.00 0.20 0.00 85 1055.2
20260830183639 66 270 0.0 0.0 0.00 0.20 0.00 85 1055.2
20260830183534 66 270 0.0 0.0 0.00 0.20 0.00 84 1055.2
20260830183420 66 247 0.0 0.0 0.00 0.20 0.00 84 1055.1
20260830183252 66 247 0.0 0.0 0.00 0.20 0.00 84 1055.2
20260830183140 66 247 0.0 0.0 0.00 0.20 0.00 84 1055.2
20260830183032 66 202 0.0 0.0 0.00 0.20 0.00 84 1055.2
20260830182912 66 202 0.0 0.0 0.00 0.20 0.00 84 1055.2
20260830182750 66 180 0.0 0.0 0.00 0.20 0.00 83 1055.2
20260830182629 67 270 0.0 0.0 0.00 0.20 0.00 83 1055.1
20260830182508 67 270 0.0 0.0 0.00 0.20 0.00 83 1055.0
20260830182401 67 270 0.0 0.0 0.00 0.20 0.00 83 1055.0
20260830182234 67 270 0.0 0.0 0.00 0.20 0.00 83 1055.1
20260830182130 67 270 0.0 0.0 0.00 0.20 0.00 83 1055.0
20260830182022 67 247 0.0 0.0 0.00 0.20 0.00 83 1055.0
20260830181909 67 247 0.0 0.0 0.00 0.20 0.00 83 1055.0
20260830181757 67 247 0.0 0.0 0.00 0.20 0.00 83 1055.0
20260830181635 67 270 0.0 0.0 0.00 0.20 0.00 83 1054.9
20260830181521 67 270 0.0 0.0 0.00 0.20 0.00 83 1054.9
20260830181354 67 270 0.0 0.0 0.00 0.20 0.00 83 1054.9
20260830181249 67 270 0.0 0.0 0.00 0.20 0.00 83 1054.8
20260830181141 67 270 0.0 0.0 0.00 0.20 0.00 83 1054.8
20260830181029 67 270 0.0 0.0 0.00 0.20 0.00 83 1055.0
20260830180918 67 247 0.0 0.0 0.00 0.20 0.00 83 1054.8
20260830180813 67 270 0.0 0.0 0.00 0.20 0.00 83 1054.9
20260830180707 67 247 0.0 0.0 0.00 0.20 0.00 83 1054.9
20260830180603 67 247 0.0 0.0 0.00 0.20 0.00 83 1054.8
20260830180456 67 247 0.0 0.0 0.00 0.20 0.00 82 1054.8
20260830180337 67 247 0.0 0.0 0.00 0.20 0.00 82 1054.9
20260830180230 67 247 0.0 0.0 0.00 0.20 0.00 82 1054.9
20260830180116 67 247 0.0 0.0 0.00 0.20 0.00 82 1054.9
20260830175956 67 247 0.0 0.0 0.00 0.20 0.00 82 1054.9
20260830175850 67 270 0.0 0.0 0.00 0.20 0.00 82 1054.9
20260830175729 67 270 0.0 0.0 0.00 0.20 0.00 82 1054.9
20260830175607 67 270 0.0 0.0 0.00 0.20 0.00 82 1054.8
20260830175446 67 270 0.0 0.0 0.00 0.20 0.00 82 1054.8
20260830175326 67 270 0.0 0.0 0.00 0.20 0.00 82 1054.7
20260830175213 67 270 0.0 0.0 0.00 0.20 0.00 82 1054.8
20260830175059 67 270 0.0 0.0 0.00 0.20 0.00 82 1054.8
20260830174937 67 270 0.0 0.0 0.00 0.20 0.00 82 1054.8
20260830174816 67 270 0.0 0.0 0.00 0.20 0.00 82 1054.7
20260830174647 67 270 0.0 0.0 0.00 0.20 0.00 81 1054.8
20260830174535 67 247 0.0 0.0 0.00 0.20 0.00 81 1054.8
20260830174430 68 270 0.0 0.0 0.00 0.20 0.00 81 1054.8
20260830174324 68 270 0.0 0.0 0.00 0.20 0.00 81 1054.7
20260830174213 68 270 0.0 0.0 0.00 0.20 0.00 81 1054.8
20260830174106 68 270 0.0 0.0 0.00 0.20 0.00 81 1054.8
20260830173945 68 270 0.0 0.0 0.00 0.20 0.00 81 1054.7
20260830173831 68 270 0.0 0.0 0.00 0.20 0.00 81 1054.7
20260830173712 68 247 0.0 0.0 0.00 0.20 0.00 81 1054.7
20260830173607 68 247 0.0 0.0 0.00 0.20 0.00 81 1054.8
20260830173452 68 247 0.0 0.0 0.00 0.20 0.00 81 1054.8
20260830173340 68 247 0.0 0.0 0.00 0.20 0.00 81 1054.8
20260830173234 68 247 0.0 0.0 0.00 0.20 0.00 81 1054.8
20260830173105 68 247 0.0 0.0 0.00 0.20 0.00 81 1054.8
20260830172945 68 270 0.0 0.0 0.00 0.20 0.00 80 1054.8
20260830172830 68 247 0.0 0.0 0.00 0.20 0.00 80 1054.8